Location: Bidwell Hollow
(37.7387°N, 90.1707°W)
Time: 23:37:57
(UTC+00:00)

Transit 2A - Pass Details

Date: 14 May 2026
Orbit: 595 x 949 km, 66.7° (Epoch: 6 June)

Event Time Altitude Azimuth Distance (km) Brightness Sun altitude
Rises 06:17:07 0° 340° (NNW) 3,165 10.1 -33.4°
Reaches altitude 10° 06:19:50 10° 351° (N) 2,177 9.1 -33.4°
Enters shadow 06:23:14 28° 31° (NNE) 1,252 7.5 -33.3°
